Check out our new BloomSky Weather System.

Active alerts

Houston, TX
  Details for Houston, TX Dense Fog Advisory


Thunder radar  blitzortung!


Rain radar more information rain snow radar


Visit our other weather sites:

Template documentation
and downloads

And another site



Weather Underground History page Text

Daily Summary for January 25, 2017 Units:  Metric    English   Both
« Previous Day
Next Day »
Daily Weekly Monthly Yearly Custom
  High: Low: Average:
Temperature: 19.2 °C 12.4 °C 15.4 °C
Dew Point: 4.6 °C 1.7 °C 3.4 °C
Humidity: 50 % 31 % 45 %
Wind Speed: 19.3 km/h 3.2 km/h 7.9 km/h
Wind Gust: 24.1 km/h - -
Wind:- - WNW
Pressure: 1019.2 hPa 1012.4 hPa -
Precipitation: 0 mm    
Historical Graphs
 
 
Tabular Data for January 25, 2017
Time Temperature Dew Point Pressure Wind Wind Speed Wind Gust Humidity Rainfall Rate (Hourly)
11:14 19.2 °C 1.7 °C 1012.4 hPa NW 19.3 km/h 19.3 km/h 31 % 0 mm
11:15 19.1 °C 2 °C 1012.8 hPa NW 12.9 km/h 19.3 km/h 32 % 0 mm
11:16 19 °C 1.9 °C 1012.8 hPa NNW 6.4 km/h 24.1 km/h 32 % 0 mm
17:17 19 °C 1.9 °C 1012.8 hPa West 11.3 km/h 24.1 km/h 32 % 0 mm
17:22 18.9 °C 2.3 °C 1012.8 hPa NW 4.8 km/h 19.3 km/h 33 % 0 mm
17:27 18.7 °C 2.1 °C 1012.8 hPa NNW 6.4 km/h 19.3 km/h 33 % 0 mm
17:32 18.6 °C 2.4 °C 1013.1 hPa NNW 9.7 km/h 19.3 km/h 34 % 0 mm
17:37 18.4 °C 2.7 °C 1013.1 hPa NNW 4.8 km/h 19.3 km/h 35 % 0 mm
17:42 18.3 °C 3 °C 1013.4 hPa NW 3.2 km/h 16.1 km/h 36 % 0 mm
17:47 18.2 °C 3.3 °C 1013.4 hPa NW 4.8 km/h 16.1 km/h 37 % 0 mm
17:52 18.1 °C 4.3 °C 1013.4 hPa NW 9.7 km/h 17.7 km/h 40 % 0 mm
17:54 17.9 °C 4.5 °C 1013.8 hPa NW 9.7 km/h 17.7 km/h 41 % 0 mm
17:59 17.8 °C 4.4 °C 1013.4 hPa WNW 9.7 km/h 17.7 km/h 41 % 0 mm
18:04 17.6 °C 4.5 °C 1013.8 hPa WNW 14.5 km/h 17.7 km/h 42 % 0 mm
18:09 17.5 °C 4.4 °C 1013.8 hPa NW 9.7 km/h 19.3 km/h 42 % 0 mm
18:14 17.4 °C 4.4 °C 1013.8 hPa NNE 12.9 km/h 19.3 km/h 42 % 0 mm
18:19 17.3 °C 4.6 °C 1014.1 hPa NNW 6.4 km/h 22.5 km/h 43 % 0 mm
18:24 17.2 °C 4.2 °C 1014.1 hPa NW 8 km/h 22.5 km/h 42 % 0 mm
18:29 17.1 °C 4.1 °C 1014.4 hPa NNW 6.4 km/h 22.5 km/h 42 % 0 mm
18:34 17 °C 4 °C 1014.4 hPa NNW 12.9 km/h 22.5 km/h 42 % 0 mm
18:39 16.9 °C 3.9 °C 1014.1 hPa NNW 4.8 km/h 22.5 km/h 42 % 0 mm
18:44 16.9 °C 3.6 °C 1014.4 hPa NW 9.7 km/h 20.9 km/h 41 % 0 mm
18:49 16.9 °C 3.6 °C 1014.4 hPa NNW 8 km/h 20.9 km/h 41 % 0 mm
18:54 16.8 °C 3.5 °C 1014.4 hPa WNW 12.9 km/h 20.9 km/h 41 % 0 mm
18:59 16.8 °C 3.5 °C 1014.4 hPa NW 6.4 km/h 19.3 km/h 41 % 0 mm
19:05 16.6 °C 3.3 °C 1014.4 hPa NW 6.4 km/h 20.9 km/h 41 % 0 mm
19:10 16.6 °C 3.6 °C 1014.8 hPa NNW 8 km/h 20.9 km/h 42 % 0 mm
19:15 16.5 °C 3.5 °C 1015.1 hPa West 8 km/h 20.9 km/h 42 % 0 mm
19:20 16.4 °C 3.8 °C 1015.1 hPa NNW 8 km/h 19.3 km/h 43 % 0 mm
19:25 16.3 °C 3.7 °C 1015.1 hPa NW 6.4 km/h 19.3 km/h 43 % 0 mm
19:30 16.2 °C 3.9 °C 1015.5 hPa NW 3.2 km/h 14.5 km/h 44 % 0 mm
19:35 16.1 °C 3.8 °C 1015.5 hPa WNW 8 km/h 14.5 km/h 44 % 0 mm
19:40 16 °C 4.1 °C 1015.1 hPa WNW 6.4 km/h 12.9 km/h 45 % 0 mm
19:45 15.9 °C 4 °C 1015.5 hPa NNW 3.2 km/h 12.9 km/h 45 % 0 mm
19:50 15.8 °C 3.9 °C 1015.5 hPa NW 3.2 km/h 17.7 km/h 45 % 0 mm
19:55 15.7 °C 3.8 °C 1015.5 hPa NNW 4.8 km/h 17.7 km/h 45 % 0 mm
20:00 15.7 °C 3.8 °C 1015.8 hPa NW 9.7 km/h 17.7 km/h 45 % 0 mm
20:05 15.6 °C 3.7 °C 1015.8 hPa NNW 9.7 km/h 22.5 km/h 45 % 0 mm
20:10 15.5 °C 3.6 °C 1015.8 hPa NW 6.4 km/h 22.5 km/h 45 % 0 mm
20:15 15.4 °C 3.8 °C 1015.8 hPa NW 3.2 km/h 22.5 km/h 46 % 0 mm
20:20 15.3 °C 4.1 °C 1015.8 hPa NNW 11.3 km/h 19.3 km/h 47 % 0 mm
20:25 15.2 °C 3.7 °C 1016.1 hPa NW 9.7 km/h 14.5 km/h 46 % 0 mm
20:30 15.2 °C 3.7 °C 1016.1 hPa NNW 9.7 km/h 19.3 km/h 46 % 0 mm
20:35 15.2 °C 4 °C 1016.1 hPa NNW 4.8 km/h 19.3 km/h 47 % 0 mm
20:40 15.1 °C 3.9 °C 1016.1 hPa NW 9.7 km/h 19.3 km/h 47 % 0 mm
20:45 15 °C 4.1 °C 1016.1 hPa NW 4.8 km/h 16.1 km/h 48 % 0 mm
20:50 14.9 °C 4.3 °C 1016.5 hPa NW 4.8 km/h 16.1 km/h 49 % 0 mm
20:55 14.8 °C 4.2 °C 1016.5 hPa WNW 3.2 km/h 12.9 km/h 49 % 0 mm
21:00 14.7 °C 4.1 °C 1016.5 hPa North 4.8 km/h 12.9 km/h 49 % 0 mm
21:05 14.7 °C 4.4 °C 1016.8 hPa NW 3.2 km/h 11.3 km/h 50 % 0 mm
21:10 14.6 °C 4.3 °C 1016.8 hPa NNW 8 km/h 16.1 km/h 50 % 0 mm
21:15 14.6 °C 4.3 °C 1017.2 hPa NW 3.2 km/h 16.1 km/h 50 % 0 mm
21:20 14.5 °C 4.2 °C 1017.2 hPa NW 6.4 km/h 16.1 km/h 50 % 0 mm
21:25 14.5 °C 4.2 °C 1017.2 hPa NNW 8 km/h 16.1 km/h 50 % 0 mm
21:30 14.4 °C 4.1 °C 1017.2 hPa WNW 4.8 km/h 16.1 km/h 50 % 0 mm
21:35 14.3 °C 4 °C 1017.2 hPa NW 6.4 km/h 16.1 km/h 50 % 0 mm
21:40 14.3 °C 4 °C 1017.2 hPa NW 6.4 km/h 16.1 km/h 50 % 0 mm
21:45 14.2 °C 3.9 °C 1017.2 hPa NW 4.8 km/h 14.5 km/h 50 % 0 mm
21:50 14.1 °C 3.8 °C 1017.2 hPa NW 8 km/h 11.3 km/h 50 % 0 mm
21:55 14 °C 3.7 °C 1017.2 hPa NW 11.3 km/h 12.9 km/h 50 % 0 mm
22:00 13.9 °C 3.6 °C 1017.5 hPa WNW 12.9 km/h 12.9 km/h 50 % 0 mm
22:05 13.9 °C 3.6 °C 1017.5 hPa NW 4.8 km/h 16.1 km/h 50 % 0 mm
22:11 13.8 °C 3.3 °C 1017.5 hPa WNW 3.2 km/h 16.1 km/h 49 % 0 mm
22:16 13.8 °C 3.3 °C 1017.8 hPa NNW 4.8 km/h 16.1 km/h 49 % 0 mm
22:21 13.7 °C 3.2 °C 1017.8 hPa NNW 8 km/h 12.9 km/h 49 % 0 mm
22:26 13.7 °C 3.2 °C 1017.8 hPa NW 9.7 km/h 16.1 km/h 49 % 0 mm
22:31 13.6 °C 3.1 °C 1017.8 hPa NW 14.5 km/h 16.1 km/h 49 % 0 mm
22:36 13.6 °C 3.1 °C 1017.8 hPa NW 6.4 km/h 22.5 km/h 49 % 0 mm
22:41 13.5 °C 3 °C 1018.2 hPa NW 8 km/h 22.5 km/h 49 % 0 mm
22:46 13.4 °C 2.9 °C 1018.2 hPa North 6.4 km/h 22.5 km/h 49 % 0 mm
22:51 13.4 °C 2.6 °C 1018.2 hPa NNW 8 km/h 14.5 km/h 48 % 0 mm
22:56 13.3 °C 2.5 °C 1018.2 hPa NNW 12.9 km/h 19.3 km/h 48 % 0 mm
23:01 13.2 °C 2.4 °C 1018.5 hPa NW 8 km/h 20.9 km/h 48 % 0 mm
23:06 13.1 °C 2.3 °C 1018.5 hPa NNW 8 km/h 20.9 km/h 48 % 0 mm
23:11 13.1 °C 2.3 °C 1018.5 hPa WSW 14.5 km/h 22.5 km/h 48 % 0 mm
23:16 12.9 °C 2.2 °C 1018.5 hPa WNW 6.4 km/h 22.5 km/h 48 % 0 mm
23:21 12.9 °C 2.4 °C 1018.5 hPa West 9.7 km/h 22.5 km/h 49 % 0 mm
23:26 12.8 °C 2.3 °C 1018.8 hPa NNW 11.3 km/h 19.3 km/h 49 % 0 mm
23:31 12.7 °C 2.3 °C 1018.8 hPa North 6.4 km/h 17.7 km/h 49 % 0 mm
23:36 12.7 °C 2.5 °C 1018.8 hPa NW 4.8 km/h 14.5 km/h 50 % 0 mm
23:41 12.6 °C 2.4 °C 1018.8 hPa NNW 9.7 km/h 16.1 km/h 50 % 0 mm
23:46 12.6 °C 2.2 °C 1018.8 hPa NW 6.4 km/h 19.3 km/h 49 % 0 mm
23:51 12.5 °C 2.4 °C 1019.2 hPa NW 11.3 km/h 19.3 km/h 50 % 0 mm
23:56 12.4 °C 1.7 °C 1019.2 hPa NNW 11.3 km/h 22.5 km/h 48 % 0 mm
Spring, Texas: Villages of Bridgestone
Compliments of Weather Underground - 1.75 mb

Script developed by  Jim McMurry - jmcmurry@mwt.net Adapted for the template by  Wim van der Kuil - Leuven-Template.eu

You find our weather info also at:

UK Metoffice

WeatherCloud

Weather Underground

Mid-South Weather Network

AWEKAS

Citizen Weather Observer Program (CWOP)

HAMweather, WeatherForYou, PWS Weather

Equipment we use:

Weather-station
Davis Vantage Vue

Weather-program
Meteohub

Weather-server
Debian 7.9 x86 (Guest)

Provider
DreamHost

Davis Vantage Vue

Meteohub

Debian 7.9 x86 (Guest)

DreamHost